FW2709 Weather Reports


time (UTC)temp
C
wind
direction
speed
KPH
gust
KPH
rain 1hr
cm
rain 24hr
cm
rain mn
cm
humidity
%
barometer
mb
20260505040050 3 126 0.0 0.0 0.00 0.00 0.33 94 1002.0
20260505034512 3 126 0.0 0.0 0.00 0.00 0.33 94 1002.0
20260505033101 3 126 0.0 0.0 0.00 0.00 0.33 93 1002.0
20260505031545 3 126 0.0 0.0 0.00 0.00 0.33 93 1001.7
20260505030044 3 126 0.0 0.0 0.00 0.00 0.33 93 1002.1
20260505024525 3 126 1.6 0.0 0.00 0.00 0.33 92 1001.8
20260505023113 3 126 0.0 0.0 0.00 0.00 0.33 92 1001.8
20260505021548 3 126 0.0 0.0 0.00 0.00 0.33 91 1001.8
20260505020005 3 126 1.6 0.0 0.00 0.00 0.33 90 1001.8
20260505014556 3 126 0.0 0.0 0.00 0.00 0.30 90 1002.4
20260505013019 3 126 0.0 0.0 0.00 0.00 0.30 89 1002.5
20260505011553 3 126 0.0 0.0 0.00 0.00 0.25 88 1002.7
20260505010017 3 126 0.0 0.0 0.00 0.00 0.20 87 1003.3
20260505004524 3 126 0.0 0.0 0.00 0.00 0.18 85 1003.4
20260505003046 3 126 0.0 0.0 0.00 0.00 0.15 82 1003.6
20260505001558 4 127 1.6 0.0 0.00 0.00 0.15 81 1003.0
20260505000003 6 215 4.8 0.0 0.00 0.00 0.10 74 1002.4
20260504234606 7 359 1.6 0.0 0.00 0.00 0.08 66 1002.4
20260504233025 8 356 11.3 0.0 0.00 0.00 0.08 62 1001.6
20260504231606 8 354 12.9 0.0 0.00 0.00 0.08 64 1001.4
20260504230014 7 354 8.0 0.0 0.00 0.00 0.08 68 1001.8
20260504224608 7 354 6.4 0.0 0.00 0.00 0.08 71 1001.5
20260504223031 8 340 8.0 0.0 0.00 0.00 0.08 73 1001.5
20260504221504 8 357 3.2 0.0 0.00 0.00 0.03 53 1001.3
20260504220008 10 359 6.4 0.0 0.00 0.00 0.00 45 1000.1
20260504214607 12 346 6.4 0.0 0.00 0.00 0.00 41 999.1
20260504213111 13 267 4.8 0.0 0.00 0.00 0.00 39 998.5
20260504211530 12 72 3.2 0.0 0.00 0.00 0.00 41 998.6
20260504210052 12 251 4.8 0.0 0.00 0.00 0.00 45 999.5
20260504204531 11 353 1.6 0.0 0.00 0.00 0.00 46 1000.6
20260504203003 11 343 1.6 0.0 0.00 0.00 0.00 44 1001.6
20260504201554 10 353 3.2 0.0 0.00 0.00 0.00 48 1001.6
20260504200003 10 350 1.6 0.0 0.00 0.00 0.00 46 1001.4
20260504194605 11 319 3.2 0.0 0.00 0.00 0.00 43 1001.7
20260504193035 11 339 3.2 0.0 0.00 0.00 0.00 41 1001.2
20260504191502 12 352 3.2 0.0 0.00 0.00 0.00 39 999.8
20260504190019 13 350 6.4 0.0 0.00 0.00 0.00 38 999.8
20260504184609 12 311 6.4 0.0 0.00 0.00 0.00 41 1000.0
20260504183042 13 254 4.8 0.0 0.00 0.00 0.00 37 1000.0
20260504181513 12 354 4.8 0.0 0.00 0.00 0.00 32 1000.6
20260504180038 12 353 3.2 0.0 0.00 0.00 0.00 32 1001.2
20260504174508 12 343 4.8 0.0 0.00 0.00 0.00 32 1001.3
20260504173114 12 336 8.0 0.0 0.00 0.00 0.00 34 1001.5
20260504171533 12 320 6.4 0.0 0.00 0.00 0.00 34 1001.5
20260504150108 10 354 4.8 0.0 0.00 0.00 0.00 34 1001.5
20260504110117 4 199 1.6 0.0 0.00 0.00 0.00 35 1000.9
20260504081519 5 285 1.6 0.0 0.00 0.00 0.00 30 1001.0
20260504050009 4 14 0.0 0.0 0.00 0.00 0.00 37 1003.6
20260504044603 4 14 0.0 0.0 0.00 0.00 0.00 40 1003.8
20260504043041 5 16 0.0 0.0 0.00 0.00 0.00 39 1003.4
20260504041509 5 16 0.0 0.0 0.00 0.00 0.00 38 1003.5